Flag for Slovakia Weather past 2 weeks in Prešov, Slovakia

Now
41 °F

Passing clouds.


Feels Like: 39 °F
Forecast: 34 / 48 °F
Wind: 3 mph from Northwest

Location: Kosice - Barca

Current Time: Feb 27, 2015 at 10:12:23 PM

Latest Report: Feb 27, 2015 at 10:00 PM


Visibility: N/A

Pressure: 29.98 "Hg

Humidity: 87%

Dew point: 37 °F

Location of PrešovLocation

Historic Weather in Prešov — Graph

°F

Prešov temperature yesterday

Maximum temperature yesterday: 45 °F (at 10:00 AM)
Minimum temperature yesterday: 41 °F (at 12:00 AM)
Average temperature yesterday: 43 °F

Past Weeks' High & Low Weather Summary

 TemperatureHumidityPressure
High52 °F (Feb 24, 2:30 PM)100% (Feb 13, 2:30 AM)30.72 "Hg (Feb 13, 2:30 AM)
Low19 °F (Feb 18, 5:30 AM)30% (Feb 17, 1:30 PM)29.68 "Hg (Feb 23, 3:30 PM)
Average37 °F76%30.11 "Hg
* Reported Feb 12 9:00 PM — Feb 27 9:00 PM, Prešov, Weather by CustomWeather, © 2015

Note: Actual official high and low records may vary slightly from our data, if they occured in-between our weather recording intervals... More about our weather records

Advertising

Prešov weather history for previous 24 hours

 ConditionsComfort  
Time TempWeatherWind HumidityBarometerVisibility
9:00 PM
Fri, Feb 27
41 °FOvercast.3 mph87%29.98 "HgN/A
8:30 PM41 °FPassing clouds.1 mph93%29.98 "HgN/A
8:00 PM41 °FPassing clouds.1 mph93%29.98 "HgN/A
7:30 PM43 °FPassing clouds.No wind87%29.98 "HgN/A
7:00 PM43 °FPassing clouds.1 mph87%29.98 "HgN/A
6:30 PM43 °FPassing clouds.2 mph87%29.95 "HgN/A
6:00 PM43 °FPassing clouds.1 mph87%29.95 "HgN/A
5:30 PM43 °FOvercast.1 mph87%29.95 "HgN/A
5:00 PM43 °FPartly sunny.1 mph81%29.95 "HgN/A
4:30 PM43 °FPartly sunny.1 mph81%29.95 "HgN/A
4:00 PM45 °FPartly sunny.3 mph76%29.95 "HgN/A
3:30 PM45 °FPartly sunny.5 mph76%29.95 "HgN/A
3:00 PM45 °FPartly sunny.2 mph76%29.95 "HgN/A
2:30 PM45 °FPartly sunny.3 mph81%29.95 "HgN/A
2:00 PM45 °FPartly sunny.6 mph81%29.95 "HgN/A
1:30 PM45 °FPartly sunny.6 mph81%29.98 "HgN/A
1:00 PM43 °FPartly sunny.7 mph87%29.98 "HgN/A
12:30 PM43 °FBroken clouds.6 mph93%29.98 "HgN/A
12:00 PM43 °FBroken clouds.7 mph93%29.98 "Hg6 mi
11:30 AM41 °FLow clouds.7 mph100%29.98 "Hg6 mi
11:00 AM43 °FOvercast.5 mph93%29.98 "Hg6 mi
10:30 AM43 °FLight rain. More clouds than sun.5 mph93%29.98 "Hg4 mi
10:00 AM41 °FLight rain. More clouds than sun.5 mph93%29.98 "Hg4 mi
9:30 AM41 °FLow clouds.2 mph93%30.01 "Hg5 mi
9:00 AM41 °FLow clouds.2 mph93%30.01 "Hg4 mi
8:30 AM41 °FDrizzle. Fog.1 mph93%30.01 "Hg3 mi
8:00 AM39 °FDrizzle. Fog.1 mph100%30.01 "Hg2 mi
7:30 AM39 °FDrizzle. Fog.1 mph100%30.01 "Hg1 mi
7:00 AM39 °FMixture of precip. Fog.2 mph93%30.01 "Hg3 mi
6:30 AM39 °FFog.1 mph93%29.98 "Hg3 mi
6:00 AM39 °FPassing clouds.1 mph93%29.98 "HgN/A
5:30 AM39 °FPassing clouds.2 mph93%29.98 "HgN/A
4:30 AM39 °FPassing clouds.2 mph93%29.98 "HgN/A
4:00 AM39 °FPassing clouds.3 mph93%29.98 "HgN/A
3:30 AM39 °FPassing clouds.3 mph93%29.98 "HgN/A
3:00 AM39 °FPassing clouds.3 mph93%30.01 "HgN/A
2:30 AM41 °FPassing clouds.5 mph87%30.01 "HgN/A
2:00 AM41 °FPassing clouds.3 mph87%30.01 "HgN/A
1:30 AM41 °FPassing clouds.5 mph87%30.01 "HgN/A
1:00 AM41 °FPassing clouds.5 mph87%30.01 "HgN/A
12:30 AM41 °FPassing clouds.7 mph87%30.01 "HgN/A
12:00 AM41 °FPassing clouds.8 mph87%30.04 "HgN/A
11:30 PM
Thu, Feb 26
41 °FPassing clouds.8 mph87%30.04 "HgN/A
11:00 PM41 °FPassing clouds.9 mph87%30.04 "HgN/A
10:30 PM43 °FLight rain. Passing clouds.9 mph81%30.04 "HgN/A
10:00 PM43 °FPassing clouds.8 mph76%30.04 "HgN/A
Weather by CustomWeather, © 2015

See weather overviewHow to use our weather pages